Location: Waco, TX
(31.5480°N, 97.1670°W)
Time: 06:30:54
(UTC-05:00)

ISS - Pass Details

Date: 02 October 2022
Orbit: 414 x 417 km, 51.6° (Epoch: 01 October)

Event Time Altitude Azimuth Distance (km) Brightness Sun altitude
Rises 22:05:49 0° 304° (NW) 2,353 1.0 -37.2°
Enters shadow 22:06:34 - 301° (WNW) 2,053 0.6 -37.4°
Reaches altitude 10° 22:08:04 10° 293° (WNW) 1,488 - -37.7°
Maximum altitude 22:11:00 29° 231° (SW) 789 - -38.2°
Drops below altitude 10° 22:13:56 10° 169° (SSE) 1,480 - -38.8°
Sets 22:16:11 0° 157° (SSE) 2,338 - -39.2°
